Regional Weather Roundup
Issued by NWS Midland/Odessa, TX

Skip options and go directly to product.
Home | Oldest Version | Previous Version | Current Version | All | Text Only | Save Text | Print | Product List | Glossary Off

Skip product version selection by date and time.   

056
ASUS44 KMAF 080210
RWRMAF
MIDLAND AREA WEATHER ROUNDUP
NATIONAL WEATHER SERVICE MIDLAND TX
900 PM CDT TUE JUL 07 2015

...IN SOUTHWEST TEXAS AND SOUTHEAST NEW MEXICO...

CITY           SKY/WX    TMP DP  RH WIND       PRES   REMARKS
ALPINE         CLEAR     76  64  67 E9        30.14R
ANDREWS        CLOUDY    71  64  78 NE12      30.07R
ARTESIA        RAIN      73  68  83 N5G13     30.10R
BIG SPRING     CLOUDY    74  71  92 N10       30.05R
CARLSBAD       CLOUDY    79  63  57 N9        30.06R
DRYDEN           N/A     72  69  90 VRB5      29.98R
FORT STOCKTON  MOCLDY    77  68  73 E16       30.02R
GUAD PASS      CLOUDY    69  61  75 NE28G36   30.17R
HOBBS          CLEAR     68  64  88 NE12      30.10R
MARFA          MOCLDY   N/A N/A N/A NE13      30.11R
MIDLAND AIRPK  CLOUDY    75  66  75 NE10      30.04R
MIDLAND INTL   MOCLDY    74  67  78 NE15      30.03R
ODESSA         PTCLDY    74  66  76 NE14      30.04R
PECOS          PTCLDY    81  65  57 E17       30.00R
PRESIDIO       FAIR      86  65  49 E12       29.91S
SEMINOLE       CLOUDY    69  63  80 NE8       30.09R
SNYDER         CLOUDY    69  66  90 N12       30.03R
WINK           PTCLDY    80  64  58 E14       30.01R
$$
...OTHER STATIONS IN TEXAS...

CITY           SKY/WX    TMP DP  RH WIND       PRES   REMARKS
ABILENE        CLOUDY    73  71  93 N8        29.98R
AMARILLO       CLOUDY    64  57  78 E6        30.11R HAZE
AUSTIN         MOCLDY    82  72  71 S14       29.95R
BROWNSVILLE    CLOUDY    83  78  85 SE13G21   29.95R
CORPUS CHRISTI CLOUDY    83  77  82 SE14      29.95R
DALLAS FTW     MOCLDY    85  71  63 S12       29.91R
DEL RIO        MOCLDY    82  71  69 CALM      29.91R
EL PASO        MOCLDY    73  63  70 E16G25    30.00R THUNDER
HOUSTON INT    MOCLDY    84  75  74 S8        30.00R
LUBBOCK        CLOUDY    65  62  90 NE9       30.08R
SAN ANGELO     CLOUDY    73  69  87 NW3       29.96R
SAN ANTONIO    MOCLDY    83  73  72 SE21      29.96R
WACO           MOCLDY    85  73  67 S16       29.92R
WICHITA FALLS  NOT AVBL
$$
...OTHER LOCATIONS IN NEW MEXICO...

CITY           SKY/WX    TMP DP  RH WIND       PRES   REMARKS
ALAMAGORDO     MOCLDY    73  63  68 W10       30.02R
ALBUQUERQUE    MOCLDY    74  58  57 SE22      30.06R
CANNON AFB     MOCLDY    65  59  80 SE5       30.13R
CLOVIS         CLOUDY    64  57  77 E5          N/A
HOLLOMAN AFB   PTCLDY    74  64  69 W14       30.01R
ROSWELL        LGT RAIN  74  61  63 E5        30.08R
RUIDOSO        CLOUDY    57  57 100 SE7       30.25S FOG
SANTA FE       MOCLDY    61  50  67 SE17      30.16R
TRUTH OR CONSE CLOUDY    76  54  46 SW7       30.04R
TUCUMCARI      MOCLDY    69  57  65 SE5       30.10R HAZE
$$

USA.gov is the U.S. government's official web portal to all federal, state and local government web resources and services.